sat.trackr.live / text

‹ back to catalog

STARLINK-30815

NORAD 58164 · 2023-166Q

PAYLOAD ACTIVE UNKNOWN

§ Identity

Operator
Country
US
Launch date
2023-10-29
Launch site
AFWTR
Launch vehicle
Mass (kg)
RCS (m²)

Purposes: comms

External: N2YO · Heavens-Above · Gunter

§ Orbital elements

Epoch: 2026-09-20T13:09:14.462784Z

Period
94.01 min
Inclination
53.1600°
Eccentricity
0.0001093
Mean motion
15.31701299 rev/d
Perigee alt
470.0 km
Apogee alt
471.5 km
Semi-major
6,848.9 km
B*
1.5539e-5
RAAN
33.0567°
Arg perigee
84.9283°
Mean anomaly
275.1843°
Rev number
16,303

§ Raw data

STARLINK-308151 58164U 23166Q   26263.54808406  .00000117  00000+0  15539-4 0  99912 58164  53.1600  33.0567 0001093  84.9283 275.1843 15.31701299163033

JSON: /api/v1/satellites/58164 · /tle

For live sub-satellite position, see the globe view (requires WebGL).

§ Visibility from observer

Set your observer location to see the next 7 days of passes ≥ 10°. The values pass through the URL so the page stays shareable.

No JS? Fill the form by hand. The geolocation button needs JavaScript.